This demonstration page uses our WeatherBlox Daily Observations layout. Learn more.

Left ArrowRight Arrow

39.51506, -84.39828

Hourly Observations for April 15, 2017

Temp ( °F °C ) Dew Point ( °F °C ) Humidity (%) Winds ( mph kmh ) Pressure ( in mb ) Visibility ( mi km ) Precip ( " mm )
12:15 am 00:15 Clear 61 16 52 11 72 72 Calm 30.18 1022 10 16 0.00 0.00
12:35 am 00:35 Clear 60 15.3 52 10.9 75 75 Calm 30.18 1022 10 16 0.00 0.00
12:55 am 00:55 Clear 61 16 52 11 72 72 Calm 30.18 1022 10 16 0.00 0.00
1:15 am 01:15 Partly Cloudy 60 15.3 52 11.2 77 77 Calm 30.18 1022 10 16 0.00 0.00
1:35 am 01:35 Mostly Cloudy 60 15.4 52 11.1 76 76 Calm 30.18 1022 10 16 0.00 0.00
1:55 am 01:55 Partly Cloudy 60 15.8 52 11.1 74 74 Calm 30.18 1022 10 16 0.00 0.00
2:15 am 02:15 Clear 60 15.7 52 11.2 75 75 Calm 30.18 1022 10 16 0.00 0.00
2:35 am 02:35 Clear 60 15.5 52 11 75 75 Calm 30.18 1022 10 16 0.00 0.00
2:55 am 02:55 Clear 60 15.3 52 11.3 77 77 Calm 30.15 1021 10 16 0.00 0.00
3:15 am 03:15 Clear 60 15.3 52 11.3 77 77 Calm 30.15 1021 10 16 0.00 0.00
3:35 am 03:35 Partly Cloudy 60 15.3 53 11.5 78 78 Calm 30.15 1021 10 16 0.00 0.00
3:55 am 03:55 Partly Cloudy 60 15.3 52 11.2 77 77 Calm 30.15 1021 10 16 0.00 0.00
4:15 am 04:15 Clear 60 15.3 52 11.2 77 77 Calm 30.15 1021 10 16 0.00 0.00
4:35 am 04:35 Clear 60 15.3 53 11.5 78 78 Calm 30.15 1021 10 16 0.00 0.00
4:55 am 04:55 Clear 57 14 51 10.5 80 80 Calm 30.15 1021 10 16 0.00 0.00
5:15 am 05:15 Clear 57 13.8 51 10.3 80 80 Calm 30.15 1021 10 16 0.00 0.00
5:35 am 05:35 Clear 57 13.8 51 10.5 81 81 Calm 30.15 1021 10 16 0.00 0.00
5:55 am 05:55 Partly Cloudy 57 13.8 51 10.6 81 81 Calm 30.15 1021 10 16 0.00 0.00
6:15 am 06:15 Partly Cloudy 55 13 50 9.9 82 82 Calm 30.15 1021 10 16 0.00 0.00
6:35 am 06:35 Mostly Cloudy 57 13.8 50 10.2 79 79 Calm 30.15 1021 10 16 0.00 0.00
6:55 am 06:55 Mostly Cloudy 57 13.8 50 10.2 79 79 Calm 30.18 1022 10 16 0.00 0.00
7:15 am 07:15 Mostly Cloudy 57 13.8 50 10.2 79 79 Calm 30.18 1022 10 16 0.00 0.00
7:35 am 07:35 Mostly Cloudy 57 13.8 51 10.3 80 80 Calm 30.18 1022 10 16 0.00 0.00
7:55 am 07:55 Hazy 57 13.8 51 10.3 80 80 Calm 30.18 1022 5 8 0.00 0.00
8:15 am 08:15 Sunny 57 13.8 51 10.3 80 80 Calm 30.18 1022 10 16 0.00 0.00
8:35 am 08:35 Sunny 60 15.6 52 11.2 75 75 Calm 30.18 1022 10 16 0.00 0.00
8:55 am 08:55 Sunny 64 18 52 11 64 64 Calm 30.15 1021 10 16 0.00 0.00
9:15 am 09:15 Partly Cloudy 67 19.5 52 11 58 58 SSW 6 9 30.18 1022 10 16 0.00 0.00
9:35 am 09:35 Mostly Cloudy 67 19.6 51 10.4 55 55 SSW 7 11 30.18 1022 10 16 0.00 0.00
9:55 am 09:55 Mostly Cloudy 69 20.6 53 11.6 56 56 S 8 13 30.18 1022 10 16 0.00 0.00
10:15 am 10:15 Cloudy 69 20.8 54 12.4 59 59 WSW 3 6 30.18 1022 10 16 0.00 0.00
10:35 am 10:35 Partly Cloudy 69 20.8 53 11.6 56 56 Calm 30.18 1022 10 16 0.00 0.00
10:55 am 10:55 Mostly Cloudy 70 20.9 53 11.9 57 57 S 5 7 30.18 1022 10 16 0.00 0.00
11:15 am 11:15 Partly Cloudy 74 23.6 54 12.2 49 49 S 8 13 30.18 1022 10 16 0.00 0.00
11:35 am 11:35 Sunny 74 23.6 53 11.4 46 46 SSW 9 15 30.15 1021 10 16 0.00 0.00
11:55 am 11:55 Sunny 77 25.1 53 11.6 43 43 SSW 14 22 30.15 1021 10 16 0.00 0.00
12:15 pm 12:15 Sunny 77 25.1 51 10.7 40 40 SSW 12 19 30.15 1021 10 16 0.00 0.00
12:35 pm 12:35 Sunny 79 26 51 10.7 38 38 SSW 9 15 30.15 1021 10 16 0.00 0.00
12:55 pm 12:55 Sunny 80 26.5 49 9.4 34 34 SSW 12 19 30.12 1020 10 16 0.00 0.00
1:15 pm 13:15 Sunny 80 26.5 49 9.3 34 34 SSW 15 24 30.12 1020 10 16 0.00 0.00
1:35 pm 13:35 Sunny 81 27.2 49 9.5 33 33 S 12 19 30.12 1020 10 16 0.00 0.00
1:55 pm 13:55 Partly Cloudy 81 27.4 49 9.2 32 32 SSW 16 26 30.12 1020 10 16 0.00 0.00
2:15 pm 14:15 Mostly Cloudy 82 28 48 8.8 30 30 SSW 13 20 30.09 1019 10 16 0.00 0.00
2:35 pm 14:35 Partly Cloudy 82 28 47 8.4 29 29 S 15 24 30.09 1019 10 16 0.00 0.00
2:55 pm 14:55 Partly Cloudy 82 28 42 5.4 24 24 SSW 20 31 30.09 1019 10 16 0.00 0.00
3:15 pm 15:15 Partly Cloudy 82 27.7 42 5.5 24 24 SSW 20 31 30.09 1019 10 16 0.00 0.00
3:35 pm 15:35 Partly Cloudy 83 28.1 40 4.3 22 22 SW 20 31 30.09 1019 10 16 0.00 0.00
3:55 pm 15:55 Partly Cloudy 82 28 40 4.3 22 22 SSW 21 33 30.06 1018 10 16 0.00 0.00
4:15 pm 16:15 Sunny 82 27.7 41 5.2 24 24 SW 16 26 30.06 1018 10 16 0.00 0.00
4:35 pm 16:35 Sunny 82 28 37 2.6 19 19 SSW 28 44 30.06 1018 10 16 0.00 0.00
4:55 pm 16:55 Sunny 82 28 36 2.2 19 19 SSW 25 41 30.06 1018 10 16 0.00 0.00
5:15 pm 17:15 Partly Cloudy 82 28 37 2.7 20 20 SW 21 33 30.03 1017 10 16 0.00 0.00
5:35 pm 17:35 Partly Cloudy 82 28 37 3 20 20 SSW 23 37 30.03 1017 10 16 0.00 0.00
5:55 pm 17:55 Partly Cloudy 81 27.4 38 3.2 21 21 SSW 20 31 30.03 1017 10 16 0.00 0.00
6:15 pm 18:15 Sunny 81 27.2 38 3.4 22 22 SSW 17 28 30.03 1017 10 16 0.00 0.00
6:35 pm 18:35 Sunny 81 27.2 38 3.3 21 21 SSW 17 28 30.03 1017 10 16 0.00 0.00
6:55 pm 18:55 Sunny 80 26.8 38 3.3 22 22 SSW 13 20 30.03 1017 10 16 0.00 0.00
7:15 pm 19:15 Sunny 80 26.5 42 5.4 26 26 SW 16 26 30.03 1017 10 16 0.00 0.00
7:35 pm 19:35 Partly Cloudy 80 26.5 37 2.6 21 21 SW 16 26 30.03 1017 10 16 0.00 0.00
7:55 pm 19:55 Partly Cloudy 77 25.1 39 4 26 26 SSW 13 20 30.03 1017 10 16 0.00 0.00
8:15 pm 20:15 Sunny 77 25 42 5.6 29 29 SSW 9 15 30.03 1017 10 16 0.00 0.00
8:35 pm 20:35 Partly Cloudy 74 23.6 42 5.8 32 32 SSW 9 15 30.03 1017 10 16 0.00 0.00
8:55 pm 20:55 Clear 74 23.6 45 7.4 35 35 SSW 7 11 30.03 1017 10 16 0.00 0.00
9:15 pm 21:15 Clear 72 22.4 46 7.8 39 39 SSW 7 11 30.03 1017 10 16 0.00 0.00
9:35 pm 21:35 Clear 73 22.5 46 7.8 39 39 SSW 6 9 30.03 1017 10 16 0.00 0.00
9:55 pm 21:55 Clear 69 20.8 47 8.4 45 45 SSW 7 11 30.03 1017 10 16 0.00 0.00
10:15 pm 22:15 Clear 69 20.8 46 7.6 43 43 SW 6 9 30.03 1017 10 16 0.00 0.00
10:35 pm 22:35 Clear 67 19.5 48 9.1 51 51 SW 6 9 30.03 1017 10 16 0.00 0.00
10:55 pm 22:55 Clear 69 20.5 50 9.9 51 51 SW 5 7 30.03 1017 10 16 0.00 0.00
11:15 pm 23:15 Clear 62 16.6 50 9.9 65 65 SW 5 7 30.03 1017 10 16 0.00 0.00
11:35 pm 23:35 Clear 61 16.2 49 9.7 66 66 SW 3 6 30.03 1017 10 16 0.00 0.00
11:55 pm 23:55 Clear 61 16 51 10.5 70 70 SW 3 6 30.03 1017 10 16 0.00 0.00

Powered by AerisWeather